Regional Weather Roundup
Issued by NWS

Home | Current Version | Previous Version | Text Only | Print | Product List | Glossary Off
Versions: 1 2 3 4 5 6 7 8 9 10 11 12 13 14 15 16 17 18 19 20 21 22 23 24 25 26 27 28 29 30 31 32 33 34 35 36 37 38 39 40 41 42 43 44 45 46 47 48 49 50

000
ASUS43 KFSD 241110
RWRSD

WEATHER ROUNDUP FOR SOUTH DAKOTA
NATIONAL WEATHER SERVICE SIOUX FALLS SD
600 AM CDT TUE APR 24 2018

NOTE: "FAIR" INDICATES FEW OR NO CLOUDS BELOW 12,000 FEET WITH NO
SIGNIFICANT WEATHER AND/OR OBSTRUCTIONS TO VISIBILITY.


SDZ001>005-009-010-012>017-241200-
NORTHWEST AND NORTH CENTRAL SOUTH DAKOTA

CITY           SKY/WX    TMP DP  RH WIND       PRES   REMARKS
BUFFALO          N/A     34  32  92 NW10      30.35S WCI  26
FAITH            N/A     32  32 100 N23G30    30.34R WCI  19
MOBRIDGE       LGT SNOW  35  33  92 N23G32    30.27R FOG     WCI  23
$$

SDZ012>016-024>037-041>051-057-063-072>074-241200-
SOUTHWEST AND SOUTH CENTRAL SOUTH DAKOTA

CITY           SKY/WX    TMP DP  RH WIND       PRES   REMARKS
RAPID CTY ARPT LGT SNOW  34  32  92 NW29G38   30.38R FOG     WCI  20
PIERRE         CLOUDY    48  46  93 NE31G39   30.12R
CUSTER         CLOUDY    29  21  72 N15G26    30.31R WCI  18
ELLSWORTH AFB  LGT RAIN  33  33 100 NW24G31   30.38R WCI  21
PHILIP         CLOUDY    37  37 100 N31G40    30.27R
PINE RIDGE     CLOUDY    36  34  92 N17G28    30.33R
SPEARFISH      LGT SNOW  32  32 100 W9        30.44R WCI  24
WINNER         CLOUDY    46  41  82 W18G28    30.14F
$$

SDZ004>011-016>023-039-040-241200-
NORTHEAST SOUTH DAKOTA

CITY           SKY/WX    TMP DP  RH WIND       PRES   REMARKS
ABERDEEN       LGT RAIN  45  41  86 N16       30.25R
WATERTOWN      CLOUDY    46  39  76 N9        30.17R
BROOKINGS      CLOUDY    46  41  82 NW3       30.15R
SISSETON         N/A     47  41  80 NW23G29   30.22R
$$

SDZ017-020-022-023-036>040-048>070-241200-
SOUTHEAST SOUTH DAKOTA

CITY           SKY/WX    TMP DP  RH WIND       PRES   REMARKS
SIOUX FALLS    CLOUDY    46  40  79 NE3       30.13S
HURON          LGT RAIN  50  46  86 NE12      30.15R
CHAMBERLAIN    CLOUDY    48  48  99 SW8       30.14S
MITCHELL       CLOUDY    51  43  74 S5        30.13S
YANKTON        CLOUDY    47  41  80 E7        30.12F
$$

ABBREVIATIONS USED IN REMARKS
   TC - TEMPERATURE IN CELSIUS
  WCI - WIND CHILL INDEX
   HX - HEAT INDEX
  VSB - VISIBILITY





USA.gov is the U.S. government's official web portal to all federal, state and local government web resources and services.